TimeCDT,TemperatureF,Dew PointF,Humidity,Sea Level PressureIn,VisibilityMPH,Wind Direction,Wind SpeedMPH,Gust SpeedMPH,PrecipitationIn,Events,Conditions,WindDirDegrees,DateUTC
12:15 AM,82.4,75.4,79,30.01,10.0,ESE,4.6,-,N/A,,Clear,120,2013-09-05 05:15:00
12:35 AM,81.7,75.2,81,30.00,10.0,ESE,4.6,-,N/A,,Clear,120,2013-09-05 05:35:00
12:55 AM,81.0,76.1,85,30.00,10.0,ESE,5.8,-,N/A,,Clear,120,2013-09-05 05:55:00
1:55 AM,81.5,75.2,81,29.99,10.0,East,3.5,-,N/A,,Clear,100,2013-09-05 06:55:00
2:15 AM,81.9,75.2,80,29.99,10.0,East,3.5,-,N/A,,Clear,90,2013-09-05 07:15:00
2:35 AM,81.5,75.2,81,29.99,10.0,East,3.5,-,N/A,,Clear,100,2013-09-05 07:35:00
2:55 AM,81.1,75.7,84,29.98,10.0,Calm,Calm,-,N/A,,Scattered Clouds,0,2013-09-05 07:55:00
3:15 AM,80.1,76.8,90,29.98,10.0,Calm,Calm,-,N/A,,Clear,0,2013-09-05 08:15:00
3:35 AM,79.9,77.0,91,29.98,10.0,NNE,3.5,-,N/A,,Clear,30,2013-09-05 08:35:00
3:55 AM,80.1,77.4,91,29.98,10.0,Calm,Calm,-,N/A,,Clear,0,2013-09-05 08:55:00
4:15 AM,81.5,77.7,88,29.98,10.0,East,3.5,-,N/A,,Clear,80,2013-09-05 09:15:00
4:35 AM,80.2,77.2,90,29.97,10.0,ENE,3.5,-,N/A,,Clear,60,2013-09-05 09:35:00
4:55 AM,80.4,77.7,91,29.97,10.0,East,3.5,-,N/A,,Clear,80,2013-09-05 09:55:00
5:15 AM,81.0,77.7,90,29.97,10.0,Calm,Calm,-,N/A,,Clear,0,2013-09-05 10:15:00
5:35 AM,79.9,77.2,91,29.98,10.0,NNE,3.5,-,N/A,,Clear,30,2013-09-05 10:35:00
5:55 AM,79.2,77.2,94,29.98,10.0,NE,3.5,-,N/A,,Scattered Clouds,40,2013-09-05 10:55:00
6:15 AM,79.5,77.4,93,29.98,10.0,NNE,4.6,-,N/A,,Scattered Clouds,30,2013-09-05 11:15:00
6:35 AM,79.3,77.2,93,29.99,10.0,NNE,4.6,-,N/A,,Clear,30,2013-09-05 11:35:00
6:55 AM,79.5,77.4,93,29.98,10.0,NNE,4.6,-,N/A,,Clear,30,2013-09-05 11:55:00
7:15 AM,79.3,77.2,93,29.99,10.0,North,3.5,-,N/A,,Scattered Clouds,360,2013-09-05 12:15:00
7:35 AM,79.2,77.5,95,30.00,10.0,Calm,Calm,-,N/A,,Scattered Clouds,0,2013-09-05 12:35:00
7:55 AM,80.8,78.4,93,30.01,10.0,NE,3.5,-,N/A,,Scattered Clouds,50,2013-09-05 12:55:00
8:15 AM,82.8,79.0,88,30.02,10.0,NE,4.6,-,N/A,,Clear,50,2013-09-05 13:15:00
8:35 AM,84.7,78.3,81,30.02,10.0,NE,5.8,-,N/A,,Clear,50,2013-09-05 13:35:00
8:55 AM,85.5,77.2,76,30.03,10.0,ENE,8.1,-,N/A,,Scattered Clouds,70,2013-09-05 13:55:00
9:15 AM,87.6,75.7,68,30.03,10.0,East,9.2,-,N/A,,Mostly Cloudy,80,2013-09-05 14:15:00
9:35 AM,88.5,75.2,65,30.03,10.0,East,8.1,-,N/A,,Mostly Cloudy,80,2013-09-05 14:35:00
9:55 AM,90.1,75.4,62,30.04,10.0,East,10.4,-,N/A,,Mostly Cloudy,90,2013-09-05 14:55:00
10:15 AM,90.1,74.3,59,30.04,10.0,ENE,10.4,-,N/A,,Scattered Clouds,70,2013-09-05 15:15:00
10:35 AM,89.6,74.7,61,30.04,10.0,East,9.2,17.3,N/A,,Scattered Clouds,80,2013-09-05 15:35:00
10:55 AM,90.5,75.0,60,30.05,10.0,East,9.2,19.6,N/A,,Scattered Clouds,100,2013-09-05 15:55:00
11:15 AM,91.8,75.2,58,30.05,10.0,East,15.0,18.4,N/A,,Mostly Cloudy,80,2013-09-05 16:15:00
11:35 AM,91.2,73.8,56,30.05,10.0,ENE,9.2,-,N/A,,Scattered Clouds,70,2013-09-05 16:35:00
11:55 AM,92.1,73.8,55,30.04,10.0,East,11.5,17.3,N/A,,Scattered Clouds,90,2013-09-05 16:55:00
12:15 PM,92.5,73.4,54,30.04,10.0,East,15.0,19.6,N/A,,Scattered Clouds,100,2013-09-05 17:15:00
12:35 PM,92.5,73.8,54,30.03,10.0,East,12.7,19.6,N/A,,Scattered Clouds,90,2013-09-05 17:35:00
12:55 PM,92.5,74.1,55,30.03,10.0,East,12.7,19.6,N/A,,Scattered Clouds,100,2013-09-05 17:55:00
1:15 PM,92.1,75.0,57,30.02,10.0,East,12.7,21.9,N/A,,Scattered Clouds,100,2013-09-05 18:15:00
1:35 PM,91.4,74.7,58,30.02,10.0,East,15.0,21.9,N/A,,Mostly Cloudy,90,2013-09-05 18:35:00
1:55 PM,91.9,74.5,57,30.01,10.0,East,15.0,23.0,N/A,,Scattered Clouds,80,2013-09-05 18:55:00
2:15 PM,92.5,74.5,56,30.01,10.0,East,16.1,21.9,N/A,,Scattered Clouds,90,2013-09-05 19:15:00
2:35 PM,92.1,73.9,55,30.01,10.0,ESE,18.4,23.0,N/A,,Scattered Clouds,110,2013-09-05 19:35:00
2:55 PM,91.8,73.2,54,30.00,10.0,East,13.8,24.2,N/A,,Scattered Clouds,100,2013-09-05 19:55:00
3:15 PM,92.5,73.9,55,30.00,10.0,East,18.4,25.3,N/A,,Scattered Clouds,100,2013-09-05 20:15:00
3:35 PM,92.1,73.9,55,30.00,10.0,ESE,15.0,21.9,N/A,,Scattered Clouds,110,2013-09-05 20:35:00
3:55 PM,91.4,74.7,58,29.99,10.0,East,11.5,21.9,N/A,,Mostly Cloudy,100,2013-09-05 20:55:00
4:15 PM,90.3,74.5,59,29.99,10.0,East,12.7,20.7,N/A,,Mostly Cloudy,100,2013-09-05 21:15:00
4:35 PM,90.1,73.8,58,29.99,10.0,ESE,17.3,21.9,N/A,,Scattered Clouds,110,2013-09-05 21:35:00
4:55 PM,91.0,73.8,57,29.99,10.0,ESE,13.8,-,N/A,,Scattered Clouds,110,2013-09-05 21:55:00
5:15 PM,89.8,73.4,58,30.00,10.0,ESE,13.8,18.4,N/A,,Scattered Clouds,120,2013-09-05 22:15:00
5:35 PM,88.7,73.0,60,30.00,10.0,ESE,13.8,18.4,N/A,,Clear,120,2013-09-05 22:35:00
5:55 PM,88.0,73.6,62,30.01,10.0,ESE,16.1,-,N/A,,Scattered Clouds,120,2013-09-05 22:55:00
6:15 PM,87.8,74.5,64,29.99,10.0,ESE,11.5,17.3,N/A,,Scattered Clouds,110,2013-09-05 23:15:00
6:35 PM,87.1,74.3,66,29.99,10.0,ESE,9.2,-,N/A,,Clear,110,2013-09-05 23:35:00
6:55 PM,86.7,73.6,65,29.98,10.0,East,9.2,-,N/A,,Clear,100,2013-09-05 23:55:00
7:15 PM,86.2,74.1,67,29.99,10.0,ESE,8.1,-,N/A,,Clear,120,2013-09-06 00:15:00
7:35 PM,85.5,75.4,72,30.00,10.0,ESE,4.6,-,N/A,,Clear,110,2013-09-06 00:35:00
7:55 PM,84.7,75.2,73,30.00,10.0,ESE,6.9,-,N/A,,Clear,120,2013-09-06 00:55:00
8:15 PM,84.2,74.3,72,30.01,10.0,ESE,9.2,-,N/A,,Clear,110,2013-09-06 01:15:00
8:35 PM,84.4,74.7,72,30.02,10.0,ESE,10.4,-,N/A,,Clear,110,2013-09-06 01:35:00
8:55 PM,84.2,75.2,74,30.02,10.0,ESE,8.1,-,N/A,,Clear,120,2013-09-06 01:55:00
9:15 PM,83.8,74.7,74,30.02,10.0,SE,9.2,-,N/A,,Clear,130,2013-09-06 02:15:00
9:35 PM,83.5,74.7,75,30.02,10.0,ESE,8.1,-,N/A,,Clear,120,2013-09-06 02:35:00
9:55 PM,83.7,74.5,74,30.02,10.0,ESE,9.2,-,N/A,,Clear,120,2013-09-06 02:55:00
10:15 PM,83.5,75.2,76,30.03,10.0,ESE,4.6,-,N/A,,Clear,110,2013-09-06 03:15:00
10:35 PM,82.8,75.0,77,30.04,10.0,ESE,5.8,-,N/A,,Clear,110,2013-09-06 03:35:00
10:55 PM,82.0,74.8,79,30.04,10.0,ESE,5.8,-,N/A,,Clear,120,2013-09-06 03:55:00
11:15 PM,82.4,74.8,78,30.04,10.0,ESE,4.6,-,N/A,,Clear,120,2013-09-06 04:15:00
11:35 PM,81.9,74.5,78,30.04,10.0,SE,4.6,-,N/A,,Clear,130,2013-09-06 04:35:00
11:55 PM,81.7,74.1,78,30.03,10.0,ESE,3.5,-,N/A,,Clear,120,2013-09-06 04:55:00